Regional Weather Roundup
Issued by NWS

Home | Current Version | Previous Version | Graphics & Text | Print | Product List | Glossary On
Versions: 1 2 3 4 5 6 7 8 9 10 11 12 13 14 15 16 17 18 19 20 21 22 23 24 25 26 27 28 29 30 31 32 33 34 35 36 37 38 39 40 41 42 43 44 45 46 47 48 49 50
000
ASUS43 KOAX 190402
RWRNE

WEATHER ROUNDUP FOR NEBRASKA
NATIONAL WEATHER SERVICE OMAHA NE
1000 PM CST THU JAN 18 2018

NOTES: SATELLITE DATA IS BEING USED TO AUGMENT CLOUD COVER ABOVE
       12000 FEET.
       "FAIR" INDICATES FEW OR NO CLOUDS BELOW 12,000 FEET WITH NO
       SIGNIFICANT WEATHER AND/OR OBSTRUCTIONS TO VISIBILITY.


NEZ001>004-019>022-054>056-190500-
NEBRASKA PANHANDLE

CITY           SKY/WX    TMP DP  RH WIND       PRES   REMARKS
SCOTTSBLUFF    CLOUDY    41  30  65 NW3       29.86F
ALLIANCE       CLOUDY    36  30  79 SW8       29.83F WCI  30
CHADRON        CLOUDY    32  28  85 SW5       29.80F WCI  27
GORDON         FAIR      40  31  69 CALM      29.79S
KIMBALL        CLOUDY    39  17  41 SW12      29.92S WCI  32
SIDNEY         CLOUDY    34  21  59 W12       29.90F WCI  25
$$

NEZ057>060-069>072-079>082-190500-
SOUTHWEST NEBRASKA

CITY           SKY/WX    TMP DP  RH WIND       PRES   REMARKS
NORTH PLATTE   MOCLDY    27  23  85 CALM      29.87F
IMPERIAL       MOCLDY    38  24  57 W7        29.88F WCI  33
LEXINGTON      MOCLDY    34  28  77 CALM      29.87F
MCCOOK         PTCLDY    36  25  64 CALM      29.89S
OGALLALA       CLOUDY    32  27  82 SW5       29.88F WCI  27
$$

NEZ005>010-023>029-035>040-094-190500-
NORTH CENTRAL NEBRASKA

CITY           SKY/WX    TMP DP  RH WIND       PRES   REMARKS
VALENTINE      CLOUDY    37  29  72 W7        29.77F WCI  32
AINSWORTH      CLOUDY    39  32  75 SW9       29.78F WCI  33
BROKEN BOW     PTCLDY    31  26  82 CALM      29.84F
O`NEILL        CLOUDY    36  32  87 SW6       29.80S WCI  31
ORD            CLOUDY    28  27  96 CALM      29.83F
THEDFORD       CLOUDY    38  31  76 SW3       29.83F
$$

NEZ041-046>049-061>064-073>077-083>087-190500-
SOUTH CENTRAL NEBRASKA

CITY           SKY/WX    TMP DP  RH WIND       PRES   REMARKS
GRAND ISLAND   CLOUDY    34  28  79 SW7       29.88S WCI  28
AURORA         CLOUDY    30  26  83 W8        29.89R WCI  23
HASTINGS       CLOUDY    37  25  61 SW5       29.89R WCI  33
HEBRON         PTCLDY    36  26  66 SW5       29.92S WCI  32
HOLDREGE       CLOUDY    40  27  61 SW5       29.89S
KEARNEY        CLOUDY    37  26  64 SW8       29.88F WCI  31
YORK           CLOUDY    32  28  86 SW9       29.88S WCI  24
$$

NEZ011>018-030>034-042>045-190500-
NORTHEAST NEBRASKA

CITY           SKY/WX    TMP DP  RH WIND       PRES   REMARKS
NORFOLK        CLOUDY    31  28  89 W5        29.83R WCI  26
ALBION         CLOUDY    36  29  75 W3        29.84F
BLAIR          CLOUDY    30  24  77 S9        29.87F WCI  22
COLUMBUS       CLOUDY    26  24  92 SW3       29.87S
FREMONT        CLOUDY    32  25  75 S8        29.88F WCI  25
TEKAMAH        CLOUDY    28  23  81 S12       29.87F WCI  18
WAYNE          CLOUDY    30  29  96 S5        29.82F WCI  26
$$

NEZ050>053-065>068-078-088>093-190500-
SOUTHEAST NEBRASKA

CITY           SKY/WX    TMP DP  RH WIND       PRES   REMARKS
LINCOLN        CLOUDY    31  23  72 S3        29.91F
OMAHA EPPLEY   CLOUDY    27  21  78 SE12      29.90F WCI  17
BEATRICE       CLOUDY    35  24  64 S8        29.92F WCI  29
FALLS CITY     CLOUDY    35  23  61 S6        29.97R WCI  30
NEBRASKA CITY  CLOUDY    30  24  79 S10       29.93F WCI  21
PLATTSMOUTH    CLOUDY    31  23  74 S10       29.90F WCI  22
$$

NEZ044-045-051>053-067-190500-
OMAHA AREA

CITY           SKY/WX    TMP DP  RH WIND       PRES   REMARKS
OMAHA EPPLEY   CLOUDY    27  21  78 SE12      29.90F WCI  17
BLAIR          CLOUDY    30  24  77 S9        29.87F WCI  22
FREMONT        CLOUDY    32  25  75 S8        29.88F WCI  25
MILLARD        CLOUDY    28  22  78 SE5       29.90F WCI  23
OFFUTT AFB     CLOUDY    22  18  85 E6        29.90F WCI  14
PLATTSMOUTH    CLOUDY    31  23  74 S10       29.90F WCI  22
WAHOO          FAIR      28  23  81 S5        29.89F WCI  23
$$




USA.gov is the U.S. government's official web portal to all federal, state and local government web resources and services.